Location: Palombina Nuova
(43.6167°N, 13.4000°E)
Time: 08:40:42
(UTC+00:00)

CZ-2C R/B - Pass Details

Date: 17 February 2020
Orbit: 668 x 784 km, 98.1° (Epoch: 27 March)

Event Time Altitude Azimuth Distance (km) Brightness Sun altitude
Rises 04:40:19 0° 360° (N) 3,286 5.8 -15.6°
Reaches altitude 10° 04:43:08 10° 345° (NNW) 2,349 4.8 -15.1°
Maximum altitude 04:46:59 22° 297° (WNW) 1,674 3.7 -14.4°
Enters shadow 04:47:48 21° 284° (WNW) 1,706 3.7 -14.2°
